Durango, CO

9:04 AM MDT on May 28, 2017 (GMT -0600)
Durango-La Plata County

Weather History for KDRO - July, 2014

Change the Weather History Date:

Saturday, July 26, 2014

  Actual Average Record
Temperature  
Mean Temperature 75 °F 70 °F  
Max Temperature 93 °F 86 °F 97 °F (2003)
Min Temperature 56 °F 54 °F 44 °F (1973)
Degree Days  
Heating Degree Days 0 0  
Month to date heating degree days 0 8  
Since 1 June heating degree days 88 123  
Since 1 July heating degree days 0 8  
Cooling Degree Days 10 5  
Month to date cooling degree days 174 100  
Year to date cooling degree days 193 129  
Since 1 June cooling degree days 188 128  
Growing Degree Days 25 (Base 50)    
Moisture  
Dew Point 41 °F    
Average Humidity 40    
Maximum Humidity 66    
Minimum Humidity 14    
Precipitation  
Precipitation 0.00 in 0.07 in 1.36 in (1989)
Month to date precipitation 0.89 1.33  
Year to date precipitation 3.29 7.40  
Sea Level Pressure  
Sea Level Pressure 29.96 in    
Wind  
Wind Speed 6 mph (West)    
Max Wind Speed 21 mph    
Max Gust Speed 27 mph    
Visibility 10 miles    
Events      
T = Trace of Precipitation, MM = Missing Value Source: NWS Daily Summary

Daily Weather History Graph

Daily Weather History Graph

Search for Another Location

Airport or City:

Trip Planner

Search our weather history database for the weather conditions in past years. The results will help you decide how hot, cold, wet, or windy it might be!

Date:

Astronomy

Jul. 26, 2014 Rise Set
Actual Time 6:11 AM MDT 8:23 PM MDT
Civil Twilight 5:41 AM MDT 8:52 PM MDT
Nautical Twilight 5:05 AM MDT 9:28 PM MDT
Astronomical Twilight 4:26 AM MDT 10:07 PM MDT
Moon 6:04 AM MDT (7/26) 8:02 PM MDT (7/26)
Length of Visible Light 15h 10m
Length of Day
14h 12m
Waning Crescent, 0% of the Moon is Illuminated
Jul 26
Waning Crescent
Jul 26
New
Aug 3
First Quarter
Aug 10
Full
Aug 17
Last Quarter

Hourly Weather History & Observations

Time (MDT) Temp. Dew Point Humidity Pressure Visibility Wind Dir Wind Speed Gust Speed Precip Events Conditions
12:53 AM 66.0 °F 46.0 °F 48% 29.93 in 10.0 mi Calm Calm - N/A   Clear
1:53 AM 63.0 °F 44.1 °F 50% 29.94 in 10.0 mi Calm Calm - N/A   Clear
2:53 AM 60.1 °F 43.0 °F 53% 29.94 in 10.0 mi South 4.6 mph - N/A   Clear
3:53 AM 57.9 °F 43.0 °F 58% 29.94 in 10.0 mi Calm Calm - N/A   Clear
4:53 AM 60.1 °F 45.0 °F 57% 29.95 in 10.0 mi Calm Calm - N/A   Clear
5:53 AM 59.0 °F 44.1 °F 58% 29.98 in 10.0 mi Calm Calm - N/A   Clear
7:53 AM 64.9 °F 46.0 °F 50% 30.01 in 10.0 mi Calm Calm - N/A   Clear
9:53 AM 77.0 °F 44.1 °F 31% 30.00 in 10.0 mi Calm Calm - N/A   Clear
12:53 PM 89.1 °F 39.9 °F 18% 29.95 in 10.0 mi Variable 4.6 mph 23.0 mph N/A   Partly Cloudy
1:53 PM 90.0 °F 37.9 °F 16% 29.94 in 10.0 mi NW 10.4 mph 19.6 mph N/A   Clear
2:53 PM 93.0 °F 37.9 °F 15% 29.94 in 10.0 mi WNW 17.3 mph - N/A   Scattered Clouds
3:50 PM 91.4 °F 37.4 °F 15% 30.23 in 10.0 mi WSW 12.7 mph - N/A   Scattered Clouds
3:53 PM 91.9 °F 37.0 °F 15% 29.93 in 10.0 mi WSW 15.0 mph - N/A   Partly Cloudy
4:53 PM 90.0 °F 37.0 °F 15% 29.91 in 10.0 mi WSW 10.4 mph - N/A   Clear
5:53 PM 91.0 °F 37.0 °F 15% 29.89 in 10.0 mi West 13.8 mph - N/A   Clear
6:53 PM 89.1 °F 36.0 °F 15% 29.90 in 10.0 mi NW 15.0 mph - N/A   Clear
7:53 PM 86.0 °F 37.9 °F 18% 29.90 in 10.0 mi WNW 11.5 mph - N/A   Clear
8:53 PM 82.0 °F 39.9 °F 22% 29.92 in 10.0 mi WNW 6.9 mph - N/A   Clear
9:53 PM 77.0 °F 41.0 °F 28% 29.94 in 10.0 mi Calm Calm - N/A   Clear
10:53 PM 73.0 °F 45.0 °F 37% 29.96 in 10.0 mi NE 11.5 mph - N/A   Clear
11:53 PM 71.1 °F 45.0 °F 39% 29.96 in 10.0 mi East 6.9 mph - N/A   Clear